FENGYUN 1C DEB

Satellite information

Favourite Embed

Satellite Type and Status

DEBRISIN ORBIT

Key statistics

Satellite FENGYUN 1C DEB at a glance.

Uptime

9555

Days in orbit

Revolutions

≈ 14.1

Per day

Orbit

SSO

Sun Synchronous Orbit

Inclination

98.7

Latest

Satellite identification and parameters

Extended collection of information and parameters for FENGYUN 1C DEB.

Object identification

Identified? True

Debris? True

Object name: FENGYUN 1C DEB

International designator: 1999-025CQL

Object number (NORAD): 32094

Object ID (CCSDS): 32094

Country: PEOPLES REPUBLIC OF CHINA (PRC)

Current information (Y/N): Y

RCS size: SMALL

Orbital parameters

Period: 102.095 minutes

Inclination: 98.7313 deg

SMA: 7235.953 km

Apoapsis: 883.634 km

Periapsis: 832.002 km

RAAN: 177.1705 deg

Eccentricy: 0.0035677

Argument of periapsis: 16.837 deg

Mean anomaly: 343.3976 deg

Mean motion: 14.10454716 rev/day

Mean motion (dot): 0.0000048 rev/day2

B* drag term: 0.00029234 1/REarth

Two-line elements (TLE)

Creation date: July 6, 2025, 2:46 p.m.

Reference frame: TEME

Reference center: EARTH

Epoch: July 1, 2025, 5 a.m. UTC

TLE line 0: 0 FENGYUN 1C DEB

TLE line 1: 1 32094U 99025CQL 25182.20875301 .00000480 00000-0 29234-3 0 9992

TLE line 2: 2 32094 98.7313 177.1705 0035677 16.8370 343.3976 14.10454716923071

Live tracking on map

Real-time ground track for satellite FENGYUN 1C DEB.

In-orbit conjunctions

A list of the most updated potential collisions computed for object FENGYUN 1C DEB.

Target Orbit TCA Probability of collision Miss distance Type
THORAD AGENA D DEB SSO 2025-06-21 01:49:09 0.0002833683 56.0 (m) DEBRIS
OBJECT A LEO 2025-02-21 01:15:17 0.0004751032 176.0 (m) UNKNOWN
METEOR 1-17 DEB LEO 2024-11-13 19:20:46 0.0002274527 913.0 (m) DEBRIS

Associated space launch

Chinese polar orbiting meteorological satellite

FENGYUN 1C DEB was lifted into orbit during the mission ‘Long March 4B | Feng Yun 1C’, on board a Long March 4B space rocket.

The launch took place on May 10, 1999, 1:33 a.m. from Launch Complex 7.

For more information about the launch, click the button.

Launch to space Long March 4B | Feng Yun 1C
Long March 4B | Feng Yun 1C

Agency: N/A

Status: Launch Successful

Launch date: May 10, 1999, 1:33 a.m. UTC

Rocket: Long March 4B

Launch pad: Launch Complex 7

Location: Taiyuan Satellite Launch Center, People's Republic of China

...

Latest news about this satellite

There are no fresh news available about this satellite. Check back as we update our databases every day.


Newsletter sign-up

Weekly statistics, charts and insights to help you stay on top of the space industry.